Flag for U.S.A. Weather past 2 weeks in Youngstown, Ohio, U.S.A.

Now
63 °F

Passing clouds.


Feels Like: 63 °F
Forecast: 57 / 82 °F
Wind: 6 mph from South

Location: Youngstown-Warren Regional Airport

Current Time: Aug 1, 2014 at 5:52:33 AM

Latest Report: Aug 1, 2014 at 4:51 AM


Visibility: 10 mi

Pressure: 30.09 "Hg

Humidity: 84%

Dew point: 58 °F

Location of YoungstownLocation

Historic Weather in Youngstown — Graph

°F

Youngstown temperature yesterday

Maximum temperature yesterday: 77 °F (at 4:51 PM)
Minimum temperature yesterday: 58 °F (at 3:51 AM)
Average temperature yesterday: 67 °F

Past Weeks' High & Low Weather Summary

 TemperatureHumidityPressure
High84 °F (Jul 21, 5:51 PM)100% (Jul 28, 8:01 AM)30.26 "Hg (Jul 28, 8:01 AM)
Low47 °F (Jul 18, 4:51 AM)36% (Jul 18, 1:51 PM)29.60 "Hg (Jul 27, 8:51 PM)
Average66 °F76%30.01 "Hg
* Reported Jul 17 4:51 AM — Aug 1 4:51 AM, Youngstown, Weather by CustomWeather, © 2014

Note: Actual official high and low records may vary slightly from our data, if they occured in-between our weather recording intervals... More about our weather records

Advertising

Youngstown weather history for previous 24 hours

 ConditionsComfort  
Time TempWeatherWind HumidityBarometerVisibility
4:51 AM
Aug 1
63 °FPassing clouds.6 mph84%30.09 "Hg10 mi
3:51 AM63 °FPassing clouds.5 mph84%30.09 "Hg10 mi
2:51 AM63 °FPassing clouds.6 mph84%30.09 "Hg10 mi
1:51 AM65 °FPassing clouds.6 mph78%30.11 "Hg10 mi
12:51 AM65 °FPassing clouds.6 mph76%30.10 "Hg10 mi
11:51 PM
Jul 31
65 °FPassing clouds.5 mph73%30.10 "Hg10 mi
10:51 PM62 °FPassing clouds.6 mph80%30.10 "Hg10 mi
9:51 PM61 °FPassing clouds.5 mph87%30.10 "Hg10 mi
8:51 PM64 °FPassing clouds.No wind78%30.09 "Hg10 mi
7:51 PM72 °FPassing clouds.No wind59%30.08 "Hg10 mi
6:51 PM76 °FPassing clouds.5 mph45%30.07 "Hg10 mi
5:51 PM76 °FPassing clouds.10 mph45%30.07 "Hg10 mi
4:51 PM77 °FScattered clouds.9 mph44%30.07 "Hg10 mi
3:51 PM76 °FScattered clouds.8 mph45%30.07 "Hg10 mi
2:51 PM76 °FScattered clouds.8 mph45%30.07 "Hg10 mi
1:51 PM75 °FPartly sunny.10 mph47%30.06 "Hg10 mi
12:51 PM74 °FPartly sunny.12 mph56%30.06 "Hg10 mi
11:51 AM71 °FScattered clouds.8 mph63%30.07 "Hg10 mi
10:51 AM69 °FScattered clouds.9 mph70%30.07 "Hg10 mi
9:51 AM64 °FFog.7 mph84%30.06 "Hg6 mi
8:51 AM62 °FFog.9 mph90%30.06 "Hg3 mi
7:58 AM61 °FFog.9 mph94%30.06 "Hg2 mi
6:51 AM60 °FFog.8 mph96%30.03 "Hg2 mi
6:02 AM61 °FFog.8 mph94%30.04 "Hg2 mi
Weather by CustomWeather, © 2014

See weather overviewHow to use our weather pages